This is the latest recevied weather packets stored in our database for station/object I4GOS-3. If no packets are shown the sender has not sent any weather packets the latest 1 day(s).
| Time | Temp. | Humidity | Pressure | Rain* | Wind** | Luminosity | Snow |
|---|---|---|---|---|---|---|---|
| 1836274517 | 18.33° C | 67% | 1024.6 hPa | 0 mm | 0 m/s | - | - |
| 1836274366 | 18.33° C | 67% | 1024.6 hPa | 0 mm | 0 m/s | - | - |
| 1836274216 | 18.33° C | 67% | 1024.6 hPa | 0 mm | 0 m/s | - | - |
| 1836274066 | 18.33° C | 68% | 1024.7 hPa | 0 mm | 0 m/s | - | - |
| 1778031222 | 17.22° C | 75% | 1011.8 hPa | 0 mm | 2.24 m/s, 125° | - | - |
| 1778030921 | 17.22° C | 75% | 1011.8 hPa | 0 mm | 1.34 m/s, 105° | - | - |
| 1778030621 | 17.22° C | 75% | 1011.8 hPa | 0 mm | 0 m/s | - | - |
| 1778030321 | 17.22° C | 75% | 1011.9 hPa | 0 mm | 0 m/s | - | - |
| 1778030021 | 17.22° C | 75% | 1012 hPa | 0 mm | 0 m/s | - | - |
| 1778029721 | 17.22° C | 75% | 1012.1 hPa | 0 mm | 0 m/s | - | - |
| 1778029420 | 17.22° C | 75% | 1012.2 hPa | 0 mm | 1.34 m/s, 93° | - | - |
| 1778029120 | 17.22° C | 75% | 1012.3 hPa | 0 mm | 0.89 m/s, 108° | - | - |
| 1778028820 | 17.22° C | 75% | 1012.2 hPa | 0 mm | 0 m/s | - | - |
| 1778028520 | 17.22° C | 75% | 1012.2 hPa | 0 mm | 0.45 m/s, 108° | - | - |
| 1778028219 | 17.22° C | 75% | 1012.2 hPa | 0 mm | 0 m/s | - | - |
| 1778027919 | 17.22° C | 75% | 1012.2 hPa | 0 mm | 1.34 m/s, 103° | - | - |
| 1778027619 | 17.22° C | 75% | 1012.2 hPa | 0 mm | 0 m/s | - | - |
| 1778027319 | 17.22° C | 75% | 1012.1 hPa | 0 mm | 0.89 m/s, 132° | - | - |
| 1778027018 | 16.67° C | 75% | 1012.2 hPa | 0 mm | 2.68 m/s, 133° | - | - |
| 1778026717 | 16.67° C | 75% | 1012.2 hPa | 0 mm | 1.34 m/s, 114° | - | - |
| 1778026417 | 16.67° C | 75% | 1012.3 hPa | 0 mm | 1.34 m/s, 137° | - | - |
| 1778026117 | 16.67° C | 74% | 1012.3 hPa | 0 mm | 1.79 m/s, 135° | - | - |
| 1778025816 | 16.67° C | 74% | 1012.3 hPa | 0 mm | 1.34 m/s, 143° | - | - |
| 1778025516 | 16.67° C | 74% | 1012.3 hPa | 0 mm | 2.68 m/s, 130° | - | - |
| 1778025216 | 16.67° C | 74% | 1012.4 hPa | 0 mm | 3.58 m/s, 128° | - | - |
* Rain latest hour (hover to see other rain measurements)
** Current wind speed in m/s (hover to see current wind gust speed)